TimeEDT,TemperatureF,Dew PointF,Humidity,Sea Level PressureIn,VisibilityMPH,Wind Direction,Wind SpeedMPH,Gust SpeedMPH,PrecipitationIn,Events,Conditions,WindDirDegrees,DateUTC
12:56 AM,72.0,69.1,91,30.14,10.0,Calm,Calm,-,N/A,,Scattered Clouds,0,2013-06-25 04:56:00
1:56 AM,71.1,69.1,93,30.14,10.0,Calm,Calm,-,N/A,,Scattered Clouds,0,2013-06-25 05:56:00
2:13 AM,71.6,69.8,94,30.15,10.0,NE,3.5,-,N/A,,Mostly Cloudy,50,2013-06-25 06:13:00
2:44 AM,71.6,69.8,94,30.13,10.0,Calm,Calm,-,N/A,,Partly Cloudy,0,2013-06-25 06:44:00
2:56 AM,71.1,69.1,93,30.13,10.0,Calm,Calm,-,N/A,,Partly Cloudy,0,2013-06-25 06:56:00
3:56 AM,72.0,70.0,93,30.13,10.0,Calm,Calm,-,N/A,,Scattered Clouds,0,2013-06-25 07:56:00
4:17 AM,71.6,71.6,100,30.14,6.0,Calm,Calm,-,N/A,,Mostly Cloudy,0,2013-06-25 08:17:00
4:39 AM,71.6,69.8,94,30.15,6.0,Calm,Calm,-,N/A,,Scattered Clouds,0,2013-06-25 08:39:00
4:56 AM,71.1,70.0,96,30.14,6.0,Calm,Calm,-,N/A,,Scattered Clouds,0,2013-06-25 08:56:00
5:56 AM,69.1,68.0,96,30.14,6.0,Calm,Calm,-,N/A,,Scattered Clouds,0,2013-06-25 09:56:00
6:12 AM,69.8,69.8,100,30.15,6.0,Calm,Calm,-,N/A,,Mostly Cloudy,0,2013-06-25 10:12:00
6:32 AM,69.8,69.8,100,30.15,4.0,Calm,Calm,-,N/A,,Scattered Clouds,0,2013-06-25 10:32:00
6:56 AM,71.1,70.0,96,30.15,6.0,Calm,Calm,-,N/A,,Partly Cloudy,0,2013-06-25 10:56:00
7:56 AM,73.0,71.1,93,30.14,10.0,Calm,Calm,-,N/A,,Partly Cloudy,0,2013-06-25 11:56:00
8:56 AM,77.0,71.1,82,30.15,10.0,WSW,3.5,-,N/A,,Scattered Clouds,240,2013-06-25 12:56:00
9:56 AM,82.0,72.0,71,30.15,10.0,WSW,5.8,-,N/A,,Scattered Clouds,240,2013-06-25 13:56:00
10:56 AM,84.0,72.0,67,30.14,10.0,SSW,6.9,-,N/A,,Scattered Clouds,200,2013-06-25 14:56:00
11:56 AM,86.0,72.0,63,30.14,10.0,West,6.9,-,N/A,,Scattered Clouds,270,2013-06-25 15:56:00
12:56 PM,88.0,71.1,57,30.12,10.0,West,9.2,-,N/A,,Mostly Cloudy,280,2013-06-25 16:56:00
1:56 PM,89.1,71.1,55,30.09,10.0,Variable,5.8,-,N/A,,Mostly Cloudy,0,2013-06-25 17:56:00
2:56 PM,89.1,69.1,52,30.06,10.0,Calm,Calm,-,N/A,,Mostly Cloudy,0,2013-06-25 18:56:00
3:56 PM,79.0,68.0,69,30.07,10.0,WNW,19.6,31.1,0.00,Rain-Thunderstorm,Light Thunderstorms and Rain,300,2013-06-25 19:56:00
4:12 PM,73.4,68.0,83,30.09,1.0,NNW,15.0,32.2,0.25,Rain-Thunderstorm,Heavy Thunderstorms and Rain,330,2013-06-25 20:12:00
4:31 PM,73.4,68.0,83,30.10,6.0,WNW,4.6,-,0.60,Rain-Thunderstorm,Light Thunderstorms and Rain,300,2013-06-25 20:31:00
4:56 PM,73.9,69.1,85,30.10,10.0,Calm,Calm,-,0.61,Rain,Light Rain,0,2013-06-25 20:56:00
5:56 PM,73.0,71.1,93,30.06,10.0,ESE,3.5,-,0.03,Rain,Light Rain,110,2013-06-25 21:56:00
6:56 PM,75.0,72.0,90,30.04,10.0,SW,3.5,-,0.00,,Mostly Cloudy,220,2013-06-25 22:56:00
7:56 PM,75.9,73.0,91,30.04,10.0,Calm,Calm,-,N/A,,Mostly Cloudy,0,2013-06-25 23:56:00
8:56 PM,75.0,73.0,94,30.05,10.0,ESE,3.5,-,N/A,,Mostly Cloudy,120,2013-06-26 00:56:00
9:56 PM,75.2,73.4,94,30.06,10.0,Calm,Calm,-,N/A,,Mostly Cloudy,0,2013-06-26 01:56:00
10:56 PM,73.9,72.0,93,30.06,10.0,WSW,3.5,-,N/A,,Mostly Cloudy,240,2013-06-26 02:56:00
11:56 PM,73.0,71.1,93,30.06,10.0,WSW,4.6,-,N/A,,Mostly Cloudy,240,2013-06-26 03:56:00